Regional Weather Roundup
Issued by NWS

Home | Current Version | Previous Version | Graphics & Text | Print | Product List | Glossary On
Versions: 1 2 3 4 5 6 7 8 9 10 11 12 13 14 15 16 17 18 19 20 21 22 23 24 25 26 27 28 29 30 31 32 33 34 35 36 37 38 39 40 41 42 43 44 45 46 47 48 49 50
000
ASUS43 KLOT 311002
RWRIL

ILLINOIS REGIONAL WEATHER ROUNDUP
NATIONAL WEATHER SERVICE CHICAGO/ROMEOVILLE IL
500 AM CDT MON AUG 31 2015

NOTE: "FAIR" INDICATES FEW OR NO CLOUDS BELOW 12,000 FEET WITH NO
SIGNIFICANT WEATHER AND/OR OBSTRUCTIONS TO VISIBILITY.

* THESE STATIONS ARE NOT UNDER NWS QUALITY CONTROL. THEY ALSO MAY NOT
  REPORT WEATHER SUCH AS PRECIPITATION OR FOG.

ILZ001-002-007-009-015-016-024-311100-
NORTHWEST ILLINOIS

CITY           SKY/WX    TMP DP  RH WIND       PRES   REMARKS
MOLINE         CLEAR     61  59  93 E3        30.02S FOG
STERLING*        N/A    N/A N/A N/A MISG        N/A
$$

ILZ003-004-008-010-011-017-018-311100-
NORTH CENTRAL ILLINOIS

CITY           SKY/WX    TMP DP  RH WIND       PRES   REMARKS
ROCKFORD       FOG       59  56  89 CALM      30.06R VSB 1
FREEPORT*      FOG       55  55  99 CALM      30.06R VSB 1/4
$$

ILZ005-006-012>014-019>023-311100-
NORTHEAST ILLINOIS

CITY           SKY/WX    TMP DP  RH WIND       PRES   REMARKS
CHICAGO-OHARE  FOG       62  61  96 CALM      30.04R VSB 1/2
CHICAGO-MIDWAY PTCLDY    67  64  90 CALM      30.03S FOG
AURORA         FOG       59  59 100 CALM      30.05S VSB 1/4
LANSING*       CLOUDY    63  63 100 CALM      30.04S FOG
WAUKEGAN       FOG       61  61 100 SW3       30.04R VSB 1/4
DUPAGE AIRPORT FOG       60  58  92 N3        30.04S VSB 1/4
WHEELING       FOG       59  57  93 CALM      30.05S VSB 3/4
NORTHERLY ISL    N/A     66  64  93 S3          N/A
$$

LMZ740>746-311100-
SOUTHERN LAKE MICHIGAN

STATION/POSITION SKY/WX   TEMP    WIND        PRES    VSBY  WAVE
                          AIR SEA DIR/SP/G                  HT/PER
                          (F)     (DEG/KT/KT) (MB)    (MI)  (FT/S)
SOUTHERN BUOY              68 68  200/  6/  6 1016.9R         0
WILMETTE HARBOR            62 60   CALM  /  2   N/A           0
HARRISON CRIB              68     180/  5/  6   N/A
BURNHAM HARBOR             66      CALM  /  2   N/A
BURNS HARBOR               68     160/  3/  6 1017.6R
MICHIGAN CITY              67     120/  4/  5   N/A
MICHIGAN CITY 6N           68 71  160/  2/  4   N/A           0
ST. JOSEPH                 67 71  180/  6/  6   N/A           0
$$

ILZ025>027-034>036-040-047-049-050-058-095>099-311100-
WEST-CENTRAL ILLINOIS

CITY           SKY/WX    TMP DP  RH WIND       PRES   REMARKS
QUINCY         MOCLDY    70  67  90 SE3       30.01R FOG
$$

ILZ028>032-037-038-041>044-048-051>054-059>061-311100-
CENTRAL ILLINOIS

CITY           SKY/WX    TMP DP  RH WIND       PRES   REMARKS
BLOOMINGTON    FOG       66  66 100 S5        30.05S VSB 1
DECATUR        CLEAR     70  66  87 S5        30.04R
PEORIA         CLEAR     68  64  87 E5        30.03R
SPRINGFIELD    CLEAR     70  68  93 S3        30.02S
TAYLORVILLE    NOT AVBL
$$

ILZ033-039-045-046-055>057-062-063-311100-
EAST-CENTRAL ILLINOIS

CITY           SKY/WX    TMP DP  RH WIND       PRES   REMARKS
CHAMPAIGN      MOCLDY    67  65  93 S3        30.05R FOG
MATTOON        PTCLDY    71  67  87 S8        30.04R FOG
$$

ILZ079-100>102-311100-
SOUTHWEST ILLINOIS

CITY           SKY/WX    TMP DP  RH WIND       PRES   REMARKS
BELLEVILLE     CLOUDY    71  71 100 E2        30.02R
CAHOKIA*       CLEAR     72  69  90 SE3       30.02R
SPARTA*        MOCLDY    71  68  92 S6        30.05R
$$

ILZ064>066-069>071-074>076-080>082-084>086-088>090-092>094-311100-
SOUTH-CENTRAL ILLINOIS

CITY           SKY/WX    TMP DP  RH WIND       PRES   REMARKS
CARBONDALE     CLOUDY    69  67  93 SE3       30.05R
MT. VERNON     MOCLDY    68  63  83 S3        30.06S
$$

ILZ067-068-072-073-078-083-087-091-311100-
SOUTHEAST ILLINOIS

CITY           SKY/WX    TMP DP  RH WIND       PRES   REMARKS
LAWRENCEVILLE  MOCLDY    65  64  97 S5        30.06R FOG
FLORA*         PTCLDY    65  65  98 S3        30.05S FOG
ROBINSON*      PTCLDY    65  64  97 CALM      30.06S FOG
$$

ABBREVIATIONS USED IN REMARKS
   TC - TEMPERATURE IN CELSIUS
  WCI - WIND CHILL INDEX
   HX - HEAT INDEX
  VSB - VISIBILITY
$$




USA.gov is the U.S. government's official web portal to all federal, state and local government web resources and services.